Regional Weather Roundup
Issued by NWS Newport/Morehead, NC

Current Version | Previous Version | Graphics & Text | Print | Product List | Glossary Off
Versions: 1 2 3 4 5 6 7 8 9 10 11 12 13 14 15 16 17 18 19 20 21 22 23 24 25 26 27 28 29 30 31 32 33 34 35 36 37 38 39 40 41 42 43 44 45 46 47 48 49 50

000
ASUS42 KMHX 302325
RWRMHX
WEATHER ROUNDUP FOR EASTERN NORTH CAROLINA
NATIONAL WEATHER SERVICE NEWPORT/MOREHEAD CITY NC
700 PM EDT THU JUL 30 2015

NOTE: "FAIR" INDICATES FEW OR NO CLOUDS BELOW 12,000 FEET
WITH NO SIGNIFICANT WEATHER AND/OR OBSTRUCTIONS TO VISIBILITY

NCZ015>017-031-032-045>047-102-103-310000-
NORTH COAST

CITY           SKY/WX    TMP DP  RH WIND       PRES   REMARKS
EDENTON          N/A     86  74  67 S9        29.87S
ELIZABETH CITY MOSUNNY   87  76  69 S12       29.87F
KITTY HAWK     PTCLDY    86  75  68 S8        29.88S
MANTEO         MOSUNNY   85  74  69 S16       29.89S

$$

NCZ045>047-081-094-103-104-310000-
CENTRAL COAST

CITY           SKY/WX    TMP DP  RH WIND       PRES   REMARKS
FRISCO         MOSUNNY   84  74  71 S13       29.90S
SWANQUARTER      N/A     84 N/A N/A S10       29.85S

$$

NCZ095-097-098-100-101-310000-
SOUTHERN COAST

CITY           SKY/WX    TMP DP  RH WIND       PRES   REMARKS
BEAUFORT       SUNNY     83  75  77 SE8       29.88F
CEDAR ISLAND     N/A     84 N/A N/A SE13      29.91S
JACKSONVILLE   MOSUNNY   85  75  72 SE12      29.86S
PINEY ISLAND   CLEAR    N/A N/A N/A MISG      29.88F
WILMINGTON     SUNNY     85  74  69 E7        29.86S


$$

NCZ011>013-027>030-043-044-078>080-089-090>093-098-310000-
COASTAL PLAIN

CITY           SKY/WX    TMP DP  RH WIND       PRES   REMARKS
AHOSKIE        PTSUNNY   87  75  67 SE3       29.86R
CLINTON        SUNNY     92  72  51 E3        29.85S
ELIZABETHTOWN  SUNNY     92  68  45 CALM      29.84S
GOLDSBORO      SUNNY     92  73  53 SE5       29.83S HX 100
GREENVILLE     SUNNY     90  73  58 S7        29.88S
HAVELOCK       MOSUNNY   84  74  71 S8        29.89R
KENANSVILLE    SUNNY    N/A N/A N/A E3        29.86S
KINSTON        SUNNY     90  73  58 SE6       29.86S
NEW BERN       MOSUNNY   88  73  61 S9        29.87F
RICHLANDS      SUNNY     88  72  58 SE7       29.87R
ROCKY MOUNT    PTSUNNY   92  71  50 S6        29.85S
WASHINGTON     SUNNY     86  75  70 SE8       29.87R
WHITEVILLE     SUNNY     92  71  50 CALM      29.84S

$$

AMZ130-135-150-152-154-156-158-170-250-252-270-ANZ085-086-088-633-658-670-310000-
MARINE OBSERVATIONS

STATION/POSITION TIME  TEMP    WIND        PRES    WAVE   SWELL
                       AIR SEA DIR/SP/G            HT/PER HT/PER
                 (UTC) (F)     (DEG/KT/KT) (MB)    (FT/S) (FT/S)
CHESAPEAKE LIGHT 2300   82     170/ 16/ 17 1011.7
64 E VA BEACH    2250   83 82  190/ 17/ 19 1011.6    3/ 8   2/ 8
DUCK             2300   83 64  170/ 13/ 16 1010.7
2 E DUCK         2311      71                N/A     3/11   2/11
OREGON INLET     2300   84 87  180/ 12/ 16 1012.4
13E OREGON INLT  2300      82                N/A     5/11   2/11
HATTERAS CG      2300   83 84  160/ 12/ 15 1012.2
DIAMOND BUOY     2250   83 86  170/ 16/ 19 1012.4    5/ 6   2/10
CAPE LOOKOUT     2300   82     140/  9/  9 1011.6
BEAUFORT LAB     2300   83 83  160/  7/  9 1011.2
30 SE NEW RVR IN NOT AVBL
27 SE WRIGHTSVLE 2300   80 83  130/ 10/ 12   N/A
5 SE WRIGHTSVLE  2208   83 83  130/ 10/ 14 1011.2
225 S CAPE HAT   2250   81 82  210/ 25/ 31 1012.3   10/ 9   5/ 9
41 SE CHARLESTON 2250   85 85  250/  4/  6 1010.8    2/ 7   2/ 7

$$



USA.gov is the U.S. government's official web portal to all federal, state and local government web resources and services.